Regional Weather Roundup
Issued by NWS

Home | Current Version | Previous Version | Text Only | Print | Product List | Glossary On
Versions: 1 2 3 4 5 6 7 8 9 10 11 12 13 14 15 16 17 18 19 20 21 22 23 24 25 26 27 28 29 30 31 32 33 34 35 36 37 38 39 40 41 42 43 44 45 46 47 48 49 50
000
ASUS44 KMEG 050800
RWRTN
TENNESSEE HOURLY STATE WEATHER ROUNDUP
NATIONAL WEATHER SERVICE MEMPHIS TN
200 AM CST THU MAR 05 2015

TNZ002-004-019-021-049-052-054-088>092-050900-
WEST TENNESSEE

CITY           SKY/WX    TMP DP  RH WIND       PRES   REMARKS
MEMPHIS INTL   LGTSLEET  23  19  85 N16G26    30.24R FOG     WCI  10
NWS MEMPHIS      N/A     22 N/A N/A MISG        N/A
JACKSON        MIX PCPN  22  17  81 N15G24    30.26R WCI   9
DYERSBURG      CLOUDY    19   7  58 N14G23    30.33R WCI   6
UNION CITY     CLOUDY    18  16  93 N16       30.29R WCI   3
PARIS          CLOUDY    16  14  93 N13       30.26R WCI   2
LEXINGTON      CLOUDY    21  19  93 N13       30.19R WCI   9
SAVANNAH       CLOUDY    25  25 100 N16       30.17R WCI  12
$$

TNZ008-025-027-028-033-062-065-066-050900-
NORTH MIDDLE TENNESSEE

CITY           SKY/WX    TMP DP  RH WIND       PRES   REMARKS
NASHVILLE      LGTSLEET  25  22  88 N21       30.17R FOG     WCI  11
CLARKSVILLE    FOG       19  16  88 N14       30.23S VSB 1/2 WCI   6
COOKEVILLE     CLOUDY    30  30 100 VRB7      30.06R WCI  23
CROSSVILLE     FRZ RAIN  32  30  92 NE8       29.97F FOG     WCI  25
$$

TNZ061-075-076-078-094-096-097-050900-
SOUTH MIDDLE TENNESSEE

CITY           SKY/WX    TMP DP  RH WIND       PRES   REMARKS
FAYETTEVILLE   CLOUDY    30  28  93 N9          N/A  WCI  22
TULLAHOMA      CLOUDY    30  30 100 N12       30.05R WCI  21
WINCHESTER     CLOUDY    34  32  93 N14       30.02R WCI  24
COLUMBIA       CLOUDY   N/A N/A N/A N7        30.11F
SHELBYVILLE    CLOUDY    30  30 100 N12       30.08F WCI  21
$$

TNZ017-018-042-046-047-050900-
NORTHEAST TENNESSEE

CITY           SKY/WX    TMP DP  RH WIND       PRES   REMARKS
TRI CITIES     CLOUDY    41  39  93 N3        29.93F
ELIZABETHTON   CLOUDY    43  41  93 W5        29.91F
$$

TNZ012-013-036-069-073-074-050900-
CENTRAL EAST TENNESSEE

CITY           SKY/WX    TMP DP  RH WIND       PRES   REMARKS
KNOXVILLE      LGT RAIN  38  35  89 N10       29.98S WCI  31
OAK RIDGE      LGT RAIN  39  36  89 NE5       29.97F
GATLINBURG     CLOUDY    39  39 100 NW6       29.97R WCI  35
$$

TNZ083-085-099-050900-
SOUTHEAST TENNESSEE

CITY           SKY/WX    TMP DP  RH WIND       PRES   REMARKS
CHATTANOOGA    CLOUDY    42  39  89 N8        29.97S
$$

SKY/WX REPORTED AS FAIR MEANS FEW OR NO CLOUDS BELOW
12 THOUSAND FEET.



USA.gov is the U.S. government's official web portal to all federal, state and local government web resources and services.